QPF
0.00 0.00 0.00 0.00 0.00 0.00 0.00 0.00 0.00 0.00 0.00 0.00 0.00 0.00 0.00 0.00 0.00 0.00 0.00 0.00 0.00 0.00 0.00 0.00 0.00 0.00 0.00 0.00 0.00 0.00 0.00 0.00 0.00 0.00 0.00 0.00 0.00 0.00 0.00 0.00 0.00 0.00
0.00 0.00 0.00 0.00 0.00 0.00 0.00 0.00 0.00 0.00 0.00 0.00 0.00 0.00 0.00 0.00 0.00 0.00 0.00 0.00 0.00 0.00 0.00 0.00 0.00 0.00 0.00 0.00 0.00 0.00 0.00 0.00 0.00 0.00 0.00 0.00 0.00 0.00 0.00 0.00 0.00 0.00
0.00 0.00 0.00 0.00 0.00 0.00 0.00 0.00 0.00 0.00 0.00 0.00 0.00 0.00 0.00 0.00 0.00 0.00 0.00 0.00 0.00 0.00 0.00 0.00 0.00 0.00 0.00 0.00 0.00 0.00 0.00 0.00 0.00 0.00 0.00 0.00 0.00 0.00 0.00 0.00 0.00 0.00
0.00 0.00 0.00 0.00 0.00 0.00 0.00 0.00 0.00 0.00 0.00 0.00 0.00 0.00 0.00 0.00 0.00 0.00 0.00 0.00 0.00 0.00 0.00 0.00 0.00 0.00 0.00 0.00 0.00 0.00 0.00 0.00 0.00 0.00 0.00 0.00 0.00 0.00 0.00 0.00 0.00 0.00
0.00 0.00 0.00 0.00 0.00 0.00 0.00 0.00 0.00 0.00 0.00 0.00 0.00 0.00 0.00 0.00 0.00 0.00 0.00 0.00 0.00 0.00 0.00 0.00 0.00 0.00 0.00 0.00 0.00 0.00 0.00 0.00 0.00 0.00 0.00 0.00 0.00 0.00 0.00 0.00 0.00 0.00
0.00 0.00 0.00 0.00 0.00 0.00 0.00 0.00 0.00 0.00 0.00 0.00 0.00 0.00 0.00 0.00 0.00 0.00 0.00 0.00 0.00 0.00 0.00 0.00 0.00 0.00 0.00 0.00 0.00 0.00 0.00 0.00 0.00 0.00 0.00 0.00 0.00 0.00 0.00 0.00 0.00 0.00
0.00 0.00 0.00 0.00 0.00 0.00 0.00 0.00 0.00 0.00 0.00 0.00 0.00 0.00 0.00 0.00 0.00 0.00 0.00 0.00 0.00 0.00 0.00 0.00 0.00 0.00 0.00 0.00 0.00 0.00 0.00 0.00 0.00 0.00 0.00 0.00 0.00 0.00 0.00 0.00 0.00 0.00
0.00 0.01 0.00 0.00 0.00 0.00 0.00 0.00 0.00 0.00 0.00 0.00 0.00 0.00 0.00 0.00 0.00 0.00 0.00 0.00 0.00 0.00 0.00 0.00 0.00 0.00 0.00 0.00 0.00 0.00 0.00 0.00 0.00 0.00 0.00 0.00 0.00 0.00 0.00 0.00 0.00 0.00
0.00 0.00 0.00 0.00 0.00 0.00 0.00 0.00 0.00 0.00 0.00 0.00 0.00 0.00 0.00 0.00 0.00 0.00 0.00 0.00 0.00 0.00 0.00 0.00 0.00 0.00 0.00 0.00 0.00 0.00 0.00 0.00 0.00 0.00 0.00 0.00 0.00 0.00 0.00 0.00 0.00 0.00
0.00 0.00 0.00 0.00 0.00 0.00 0.00 0.00 0.00 0.00 0.00 0.00 0.00 0.00 0.00 0.00 0.00 0.00 0.00 0.00 0.00 0.00 0.00 0.00 0.00 0.00 0.00 0.00 0.00 0.00 0.00 0.00 0.00 0.00 0.00 0.00 0.00 0.00 0.00 0.00 0.00 0.00
0.00 0.00 0.00 0.00 0.00 0.00 0.00 0.00 0.00 0.00 0.00 0.00 0.00 0.00 0.00 0.00 0.00 0.00 0.00 0.00 0.00 0.00 0.00 0.00 0.00 0.00 0.00 0.00 0.00 0.00 0.00 0.00 0.00 0.00 0.00 0.00 0.00 0.00 0.00 0.00 0.00 0.00
0.01 0.03 0.00 0.01 0.00 0.00 0.00 0.00 0.00 0.00 0.00 0.00 0.00 0.00 0.00 0.00 0.00 0.00 0.00 0.00 0.00 0.00 0.00 0.00 0.00 0.00 0.00 0.00 0.00 0.00 0.00 0.00 0.00 0.00 0.00 0.00 0.00 0.00 0.00 0.00 0.00 0.00
0.06 0.10 0.12 0.04 0.01 0.00 0.00 0.02 0.01 0.00 0.00 0.00 0.00 0.00 0.00 0.00 0.00 0.00 0.00 0.00 0.00 0.00 0.00 0.00 0.00 0.00 0.00 0.00 0.00 0.00 0.00 0.00 0.00 0.00 0.00 0.00 0.00 0.00 0.00 0.00 0.00 0.00
0.11 0.07 0.07 0.03 0.01 0.00 0.00 0.02 0.01 0.00 0.00 0.00 0.00 0.00 0.00 0.00 0.00 0.00 0.00 0.00 0.00 0.00 0.00 0.00 0.00 0.00 0.00 0.00 0.00 0.00 0.00 0.00 0.00 0.00 0.00 0.00 0.00 0.00 0.00 0.00 0.00 0.00
0.05 0.05 0.01 0.01 0.00 0.00 0.00 0.00 0.01 0.01 0.01 0.02 0.00 0.00 0.00 0.00 0.00 0.00 0.00 0.00 0.00 0.00 0.00 0.00 0.00 0.00 0.00 0.00 0.00 0.00 0.00 0.00 0.00 0.00 0.00 0.00 0.00 0.00 0.00 0.00 0.00 0.00
0.00 0.05 0.00 0.00 0.00 0.00 0.00 0.03 0.10 0.07 0.10 0.10 0.05 0.00 0.00 0.00 0.00 0.00 0.00 0.00 0.00 0.00 0.00 0.00 0.00 0.00 0.00 0.00 0.00 0.00 0.01 0.00 0.00 0.00 0.00 0.00 0.00 0.00 0.01 0.01 0.00 0.00
0.00 0.01 0.01 0.02 0.04 0.01 0.00 0.04 0.06 0.05 0.03 0.03 0.07 0.05 0.02 0.00 0.00 0.00 0.00 0.00 0.00 0.00 0.00 0.00 0.00 0.00 0.00 0.00 0.00 0.00 0.00 0.00 0.00 0.00 0.00 0.00 0.00 0.01 0.02 0.21 0.06 0.12
0.00 0.00 0.00 0.01 0.01 0.00 0.01 0.01 0.00 0.01 0.02 0.03 0.05 0.05 0.03 0.04 0.00 0.00 0.00 0.00 0.00 0.00 0.00 0.00 0.00 0.00 0.00 0.00 0.00 0.00 0.00 0.00 0.00 0.00 0.00 0.00 0.01 0.02 0.16 0.51 0.61 0.38
0.01 0.01 0.00 0.00 0.00 0.00 0.04 0.02 0.04 0.02 0.04 0.04 0.07 0.05 0.02 0.06 0.00 0.00 0.00 0.00 0.00 0.00 0.00 0.00 0.15 0.14 0.00 0.00 0.00 0.00 0.00 0.00 0.00 0.02 0.00 0.01 0.01 0.09 0.54 0.47 0.58 0.58
0.00 0.01 0.01 0.02 0.00 0.01 0.01 0.03 0.04 0.03 0.03 0.06 0.05 0.02 0.01 0.02 0.04 0.03 0.02 0.00 0.00 0.00 0.00 0.01 0.06 0.01 0.00 0.00 0.00 0.00 0.00 0.00 0.00 0.01 0.05 0.02 0.10 0.13 0.16 0.31 0.21 0.07
0.00 0.00 0.00 0.00 0.00 0.00 0.00 0.00 0.00 0.04 0.06 0.12 0.09 0.05 0.01 0.02 0.01 0.00 0.00 0.00 0.00 0.00 0.00 0.01 0.08 0.03 0.01 0.00 0.00 0.00 0.00 0.00 0.00 0.00 0.00 0.02 0.51 0.17 0.04 0.02 0.06 0.23
0.00 0.00 0.00 0.00 0.00 0.00 0.00 0.00 0.00 0.00 0.00 0.01 0.00 0.00 0.00 0.01 0.01 0.01 0.00 0.00 0.00 0.00 0.00 0.00 0.23 0.02 0.00 0.00 0.00 0.00 0.00 0.00 0.00 0.01 0.00 0.01 0.02 0.08 0.05 0.03 0.01 0.03
0.00 0.00 0.00 0.00 0.00 0.00 0.00 0.00 0.00 0.00 0.00 0.00 0.01 0.02 0.01 0.01 0.00 0.00 0.00 0.00 0.00 0.00 0.02 0.02 0.01 0.00 0.01 0.00 0.00 0.00 0.00 0.00 0.00 0.01 0.00 0.03 0.03 0.08 0.01 0.04 0.00 0.00
0.00 0.00 0.00 0.00 0.00 0.00 0.00 0.00 0.00 0.00 0.00 0.00 0.00 0.00 0.00 0.02 0.02 0.02 0.02 0.01 0.01 0.00 0.02 0.01 0.04 0.02 0.00 0.00 0.00 0.00 0.00 0.00 0.00 0.00 0.00 0.01 0.02 0.00 0.04 0.01 0.00 0.00
0.00 0.00 0.00 0.00 0.00 0.00 0.00 0.00 0.00 0.00 0.00 0.00 0.00 0.00 0.00 0.01 0.01 0.01 0.00 0.00 0.00 0.00 0.00 0.01 0.02 0.08 0.01 0.00 0.00 0.00 0.01 0.00 0.00 0.01 0.01 0.00 0.01 0.00 0.01 0.00 0.02 0.00
0.00 0.00 0.00 0.00 0.00 0.00 0.00 0.00 0.00 0.00 0.00 0.00 0.00 0.00 0.00 0.00 0.00 0.00 0.01 0.01 0.01 0.00 0.05 0.03 0.10 0.07 0.00 0.00 0.00 0.00 0.00 0.00 0.01 0.01 0.02 0.06 0.03 0.01 0.03 0.01 0.00 0.02
MSLP
1015.35 1015.55 1015.79 1015.99 1016.15 1016.23 1016.35 1016.47 1016.59 1016.83 1016.87 1016.91 1017.19 1017.31 1017.47 1017.55 1017.55 1017.63 1017.67 1017.67 1017.67 1017.71 1017.71 1017.75 1017.67 1017.63 1017.63 1017.63 1017.63 1017.79 1018.07 1018.23 1018.31 1018.39 1018.55 1018.67 1018.75 1018.71 1018.79 1018.75 1018.75 1018.79
1015.47 1015.55 1015.67 1015.83 1016.07 1016.15 1016.27 1016.35 1016.55 1016.71 1016.83 1016.95 1017.11 1017.27 1017.43 1017.59 1017.71 1017.71 1017.83 1017.83 1017.79 1017.83 1017.79 1017.83 1017.83 1017.87 1017.91 1017.95 1018.03 1018.23 1018.39 1018.43 1018.59 1018.51 1018.83 1018.95 1018.99 1018.99 1019.03 1018.99 1019.07 1019.07
1015.43 1015.59 1015.71 1015.95 1016.11 1016.27 1016.35 1016.39 1016.55 1016.67 1016.83 1016.99 1017.11 1017.31 1017.51 1017.59 1017.75 1017.71 1017.71 1017.75 1017.83 1017.83 1017.87 1017.91 1018.03 1018.07 1018.15 1018.23 1018.31 1018.47 1018.59 1018.71 1018.83 1018.75 1018.91 1019.11 1019.15 1019.23 1019.19 1019.15 1019.27 1019.35
1015.31 1015.47 1015.67 1015.83 1015.99 1016.23 1016.35 1016.55 1016.67 1016.79 1016.87 1017.15 1017.27 1017.35 1017.43 1017.55 1017.63 1017.71 1017.75 1017.79 1017.83 1017.87 1017.91 1017.99 1018.07 1018.15 1018.23 1018.39 1018.51 1018.67 1018.75 1018.83 1018.87 1018.87 1019.07 1019.15 1019.23 1019.31 1019.39 1019.35 1019.43 1019.59
1015.15 1015.39 1015.59 1015.79 1015.99 1016.19 1016.39 1016.59 1016.79 1016.87 1016.99 1017.11 1017.19 1017.27 1017.39 1017.55 1017.67 1017.75 1017.75 1017.79 1017.75 1017.87 1017.87 1018.03 1018.11 1018.23 1018.27 1018.47 1018.63 1018.83 1018.87 1018.91 1018.91 1018.99 1019.19 1019.35 1019.35 1019.39 1019.43 1019.51 1019.71 1019.87
1015.03 1015.23 1015.47 1015.83 1016.11 1016.31 1016.47 1016.63 1016.71 1016.83 1016.95 1017.11 1017.19 1017.19 1017.31 1017.39 1017.55 1017.67 1017.75 1017.75 1017.71 1017.75 1017.87 1017.99 1018.15 1018.19 1018.31 1018.47 1018.59 1018.75 1018.83 1018.95 1018.95 1019.03 1019.23 1019.35 1019.43 1019.39 1019.43 1019.51 1019.71 1019.87
1015.11 1015.31 1015.59 1015.87 1016.15 1016.27 1016.47 1016.55 1016.63 1016.71 1016.87 1016.95 1016.99 1017.15 1017.19 1017.31 1017.43 1017.55 1017.59 1017.63 1017.63 1017.67 1017.79 1017.95 1018.07 1018.23 1018.23 1018.35 1018.51 1018.71 1018.79 1018.83 1018.83 1018.87 1019.07 1019.19 1019.19 1019.31 1019.31 1019.51 1019.71 1019.83
1015.15 1015.27 1015.51 1015.83 1016.15 1016.31 1016.47 1016.55 1016.67 1016.75 1016.79 1016.87 1016.99 1016.99 1017.03 1017.15 1017.27 1017.35 1017.43 1017.47 1017.51 1017.63 1017.75 1017.87 1017.99 1018.11 1018.15 1018.27 1018.55 1018.75 1018.79 1018.71 1018.79 1018.91 1019.07 1019.15 1019.15 1019.35 1019.43 1019.47 1019.63 1019.83
1015.15 1015.35 1015.55 1015.87 1016.11 1016.27 1016.43 1016.51 1016.59 1016.71 1016.71 1016.87 1016.91 1016.95 1016.91 1016.99 1017.15 1017.27 1017.31 1017.35 1017.47 1017.59 1017.71 1017.83 1017.91 1017.99 1018.11 1018.31 1018.51 1018.67 1018.75 1018.79 1018.87 1019.03 1019.11 1019.23 1019.31 1019.43 1019.47 1019.51 1019.75 1019.99
1015.15 1015.39 1015.71 1015.95 1016.15 1016.19 1016.35 1016.35 1016.43 1016.59 1016.67 1016.79 1016.83 1016.91 1016.99 1016.95 1017.03 1017.19 1017.27 1017.35 1017.47 1017.55 1017.71 1017.83 1017.91 1018.03 1018.07 1018.23 1018.39 1018.51 1018.67 1018.79 1018.95 1019.07 1019.15 1019.19 1019.27 1019.35 1019.51 1019.67 1019.87 1020.07
1014.99 1015.23 1015.59 1015.87 1016.03 1016.07 1016.19 1016.23 1016.27 1016.43 1016.55 1016.71 1016.75 1016.91 1016.87 1016.91 1017.07 1017.11 1017.27 1017.35 1017.47 1017.55 1017.71 1017.79 1017.91 1017.95 1018.07 1018.15 1018.19 1018.31 1018.47 1018.71 1018.91 1019.07 1019.15 1019.19 1019.19 1019.35 1019.47 1019.67 1019.91 1020.11
1015.11 1015.47 1015.55 1015.79 1015.91 1015.99 1016.03 1016.07 1016.19 1016.31 1016.51 1016.63 1016.67 1016.87 1016.83 1016.87 1017.07 1017.11 1017.19 1017.35 1017.39 1017.39 1017.51 1017.67 1017.79 1017.91 1018.03 1018.15 1018.23 1018.35 1018.47 1018.63 1018.79 1018.99 1019.11 1019.15 1019.27 1019.35 1019.51 1019.63 1019.91 1020.07
1015.91 1016.47 1016.63 1016.23 1015.91 1015.83 1015.91 1016.03 1016.23 1016.35 1016.47 1016.63 1016.63 1016.75 1016.91 1016.99 1017.03 1017.11 1017.11 1017.19 1017.27 1017.27 1017.39 1017.55 1017.71 1017.87 1017.99 1018.07 1018.23 1018.35 1018.51 1018.67 1018.79 1018.95 1019.07 1019.19 1019.27 1019.35 1019.51 1019.63 1019.83 1020.03
1016.23 1016.27 1016.39 1016.07 1015.83 1015.87 1016.07 1016.27 1016.35 1016.35 1016.39 1016.43 1016.47 1016.71 1016.91 1017.03 1017.07 1017.11 1017.15 1017.11 1017.15 1017.23 1017.23 1017.39 1017.59 1017.83 1017.95 1018.07 1018.19 1018.31 1018.47 1018.67 1018.83 1018.99 1019.15 1019.19 1019.27 1019.35 1019.47 1019.67 1019.83 1020.03
1015.71 1015.79 1015.71 1015.83 1015.79 1015.95 1016.23 1016.31 1016.51 1016.59 1016.51 1016.51 1016.55 1016.55 1016.63 1016.87 1016.91 1016.99 1017.19 1017.27 1017.19 1017.19 1017.23 1017.35 1017.59 1017.83 1017.95 1018.11 1018.27 1018.35 1018.47 1018.71 1018.83 1018.99 1019.15 1019.31 1019.35 1019.43 1019.51 1019.63 1019.87 1020.07
1015.43 1015.79 1015.79 1015.87 1016.03 1016.15 1016.35 1016.55 1016.75 1016.87 1016.87 1016.75 1016.71 1016.75 1016.71 1016.67 1016.87 1016.95 1017.07 1017.27 1017.31 1017.23 1017.27 1017.43 1017.63 1017.75 1017.91 1018.03 1018.19 1018.31 1018.43 1018.55 1018.75 1018.95 1019.11 1019.19 1019.39 1019.51 1019.59 1019.67 1020.03 1020.71
1015.51 1015.75 1015.87 1016.03 1016.11 1016.19 1016.43 1016.63 1016.91 1017.03 1017.15 1017.19 1017.11 1016.91 1016.91 1016.91 1016.87 1016.91 1016.99 1017.07 1017.23 1017.31 1017.39 1017.55 1017.63 1017.83 1017.99 1018.11 1018.11 1018.27 1018.35 1018.51 1018.79 1018.95 1019.07 1019.19 1019.35 1019.55 1019.75 1019.95 1020.51 1021.11
1015.59 1015.71 1015.95 1016.11 1016.23 1016.35 1016.51 1016.67 1016.95 1017.15 1017.19 1017.23 1017.27 1017.27 1017.15 1017.11 1017.15 1017.15 1017.03 1017.07 1017.15 1017.27 1017.43 1017.51 1017.99 1018.23 1018.19 1018.23 1018.35 1018.43 1018.59 1018.59 1018.67 1018.83 1019.03 1019.19 1019.39 1019.67 1020.59 1021.11 1021.43 1021.31
1015.79 1015.83 1016.11 1016.11 1016.23 1016.27 1016.51 1016.79 1016.99 1017.15 1017.31 1017.47 1017.47 1017.31 1017.35 1017.39 1017.35 1017.35 1017.27 1017.15 1017.19 1017.35 1017.51 1017.67 1017.99 1017.75 1018.03 1018.55 1018.55 1018.47 1018.59 1018.67 1018.63 1018.71 1018.95 1019.19 1019.31 1020.11 1021.11 1021.07 1021.03 1021.07
1015.71 1015.91 1016.27 1016.27 1016.23 1016.43 1016.55 1016.83 1016.99 1017.11 1017.27 1017.59 1017.75 1017.67 1017.63 1017.59 1017.55 1017.59 1017.39 1017.35 1017.39 1017.47 1017.55 1017.83 1017.99 1017.87 1018.03 1018.23 1018.27 1018.39 1018.47 1018.63 1018.67 1018.79 1018.99 1019.19 1019.67 1019.91 1020.23 1020.75 1020.87 1020.99
1016.15 1016.23 1016.19 1016.19 1016.11 1016.19 1016.27 1016.51 1017.07 1017.59 1017.79 1018.19 1018.51 1018.23 1017.91 1017.75 1017.67 1017.59 1017.55 1017.51 1017.51 1017.51 1017.63 1017.79 1017.99 1017.87 1017.91 1018.19 1018.55 1018.51 1018.51 1018.71 1018.79 1018.91 1019.03 1019.27 1019.67 1019.75 1020.19 1020.47 1020.71 1021.11
1016.79 1016.71 1016.59 1016.51 1016.35 1016.31 1016.31 1016.31 1016.35 1016.63 1016.79 1016.83 1016.95 1016.95 1017.03 1017.11 1017.31 1017.39 1017.47 1017.51 1017.47 1017.47 1017.59 1017.75 1017.95 1017.91 1018.07 1018.31 1018.39 1018.55 1018.79 1018.83 1018.79 1018.91 1019.07 1019.19 1019.47 1019.83 1020.27 1020.27 1020.31 1020.43
1017.47 1017.31 1017.11 1016.91 1016.75 1016.71 1016.55 1016.43 1016.39 1016.39 1016.51 1016.71 1016.87 1016.95 1016.91 1016.95 1017.07 1017.15 1017.15 1017.15 1017.23 1017.27 1017.47 1017.51 1017.87 1018.03 1018.31 1018.51 1018.63 1018.67 1018.75 1018.71 1018.75 1018.87 1018.99 1019.11 1019.15 1019.47 1019.63 1019.79 1019.95 1019.95
1017.95 1017.75 1017.51 1017.27 1017.19 1017.11 1016.99 1016.83 1016.71 1016.55 1016.47 1016.39 1016.63 1016.79 1016.87 1016.83 1016.79 1016.87 1016.91 1016.95 1017.07 1017.19 1017.19 1017.39 1017.59 1017.91 1018.23 1018.31 1018.71 1018.91 1018.59 1018.55 1018.63 1018.79 1018.87 1018.91 1018.99 1019.03 1019.31 1019.83 1019.95 1019.83
1018.15 1017.91 1017.71 1017.51 1017.47 1017.39 1017.35 1017.35 1017.15 1016.95 1016.67 1016.43 1016.31 1016.35 1016.47 1016.47 1016.55 1016.63 1016.71 1016.71 1016.75 1016.91 1016.99 1017.31 1017.87 1018.47 1018.75 1018.51 1018.47 1018.67 1018.71 1018.51 1018.43 1018.51 1018.63 1018.63 1018.75 1018.95 1019.19 1019.59 1019.91 1019.75
1018.27 1018.11 1017.87 1017.75 1017.71 1017.63 1017.55 1017.51 1017.39 1017.19 1016.95 1016.71 1016.51 1016.27 1016.11 1016.07 1016.15 1016.27 1016.43 1016.59 1016.59 1016.71 1017.07 1017.67 1017.83 1017.79 1017.83 1018.39 1018.99 1019.11 1018.79 1018.47 1018.31 1018.39 1018.51 1018.87 1018.71 1018.83 1019.07 1019.47 1019.79 1019.99
Thickness
5635 5635 5634 5632 5632 5632 5632 5632 5631 5629 5628 5627 5626 5625 5624 5623 5622 5622 5621 5621 5622 5622 5622 5621 5621 5622 5622 5623 5623 5622 5621 5620 5619 5618 5617 5616 5615 5615 5615 5614 5614 5613
5631 5632 5632 5631 5630 5630 5630 5630 5629 5628 5627 5626 5625 5623 5622 5621 5620 5619 5619 5619 5619 5619 5619 5618 5618 5618 5618 5618 5618 5617 5616 5616 5616 5615 5613 5612 5611 5610 5610 5609 5609 5608
5629 5629 5629 5629 5628 5627 5626 5628 5627 5626 5625 5624 5623 5621 5620 5619 5618 5618 5617 5617 5617 5617 5616 5616 5615 5615 5614 5614 5614 5613 5613 5612 5612 5612 5611 5609 5608 5607 5607 5607 5606 5605
5627 5626 5627 5626 5626 5625 5624 5624 5623 5623 5623 5622 5620 5620 5619 5618 5617 5617 5616 5616 5615 5615 5615 5614 5613 5612 5612 5611 5610 5609 5609 5609 5609 5609 5608 5607 5606 5605 5605 5604 5603 5603
5626 5625 5625 5624 5623 5622 5622 5621 5620 5621 5620 5619 5618 5618 5617 5616 5616 5615 5614 5614 5615 5614 5614 5613 5612 5611 5610 5609 5608 5607 5607 5607 5607 5607 5606 5604 5604 5604 5603 5602 5601 5600
5624 5623 5622 5620 5619 5619 5619 5618 5618 5618 5618 5617 5617 5616 5616 5616 5614 5614 5613 5613 5613 5613 5612 5611 5610 5610 5609 5608 5607 5606 5605 5605 5605 5605 5604 5603 5603 5603 5602 5601 5599 5598
5621 5621 5619 5617 5616 5616 5617 5617 5617 5616 5616 5615 5615 5615 5615 5614 5613 5613 5612 5612 5612 5612 5612 5610 5609 5608 5608 5607 5606 5604 5604 5604 5604 5604 5603 5603 5602 5602 5602 5601 5599 5598
5617 5618 5617 5615 5614 5614 5614 5614 5614 5614 5614 5614 5613 5613 5614 5613 5612 5612 5611 5611 5611 5610 5610 5609 5608 5607 5607 5606 5604 5603 5602 5602 5602 5602 5602 5602 5601 5600 5600 5599 5598 5596
5614 5614 5612 5611 5611 5611 5611 5612 5612 5611 5611 5612 5611 5612 5612 5612 5611 5610 5610 5610 5610 5608 5608 5607 5607 5606 5605 5604 5603 5602 5601 5601 5600 5600 5599 5599 5599 5598 5598 5597 5596 5594
5610 5610 5608 5607 5608 5609 5609 5610 5610 5609 5609 5609 5609 5609 5610 5610 5609 5609 5608 5608 5608 5607 5606 5605 5605 5604 5604 5603 5602 5602 5600 5599 5599 5597 5597 5597 5597 5597 5596 5595 5593 5591
5609 5607 5605 5605 5605 5605 5606 5607 5608 5608 5607 5606 5607 5606 5606 5607 5607 5606 5606 5606 5605 5605 5604 5603 5603 5602 5602 5602 5602 5601 5600 5598 5597 5596 5595 5595 5595 5595 5594 5592 5591 5589
5604 5602 5600 5601 5602 5603 5604 5605 5605 5605 5603 5603 5603 5603 5604 5604 5604 5604 5604 5603 5603 5604 5603 5602 5602 5601 5601 5601 5600 5600 5599 5597 5596 5595 5594 5593 5593 5592 5591 5590 5588 5587
5597 5595 5594 5596 5599 5601 5602 5601 5602 5601 5601 5600 5600 5601 5600 5601 5601 5601 5601 5602 5602 5602 5602 5601 5601 5600 5599 5599 5598 5598 5597 5596 5595 5593 5592 5592 5591 5590 5589 5587 5585 5584
5596 5594 5594 5595 5597 5599 5598 5598 5598 5598 5598 5599 5599 5599 5598 5598 5598 5598 5599 5599 5600 5600 5601 5600 5599 5597 5597 5597 5596 5595 5595 5594 5593 5591 5590 5589 5588 5587 5587 5584 5582 5580
5596 5595 5595 5595 5595 5596 5595 5594 5594 5594 5595 5596 5597 5597 5597 5596 5596 5596 5596 5596 5597 5598 5598 5598 5596 5595 5594 5593 5593 5593 5592 5591 5591 5589 5587 5586 5586 5584 5584 5582 5578 5574
5593 5592 5592 5592 5593 5592 5592 5591 5590 5589 5589 5590 5592 5593 5593 5593 5594 5594 5594 5593 5594 5595 5595 5594 5593 5592 5591 5591 5590 5590 5589 5589 5587 5586 5585 5584 5583 5582 5580 5577 5572 5567
5590 5589 5589 5589 5589 5589 5588 5587 5586 5585 5585 5585 5586 5588 5589 5590 5590 5591 5592 5592 5592 5592 5591 5590 5589 5587 5587 5587 5587 5586 5586 5586 5584 5583 5582 5580 5580 5578 5575 5571 5565 5559
5586 5586 5585 5585 5585 5586 5585 5584 5582 5581 5580 5580 5580 5582 5583 5585 5586 5586 5588 5589 5589 5588 5587 5586 5584 5583 5583 5581 5582 5582 5581 5582 5582 5580 5578 5577 5576 5573 5566 5561 5556 5554
5581 5582 5581 5580 5582 5581 5581 5580 5579 5577 5577 5576 5576 5577 5578 5580 5580 5582 5583 5585 5585 5584 5583 5581 5580 5581 5579 5576 5576 5578 5577 5577 5578 5577 5575 5573 5571 5567 5559 5554 5552 5550
5577 5577 5576 5576 5577 5578 5577 5577 5574 5573 5573 5571 5568 5568 5570 5571 5573 5575 5576 5578 5579 5579 5578 5577 5575 5576 5575 5572 5572 5573 5573 5572 5572 5572 5571 5568 5565 5563 5558 5552 5549 5547
5570 5570 5571 5572 5573 5574 5574 5574 5571 5569 5567 5565 5563 5562 5563 5565 5567 5569 5570 5572 5573 5573 5572 5571 5571 5571 5570 5567 5566 5566 5566 5566 5566 5566 5564 5561 5560 5558 5553 5549 5547 5545
5560 5562 5563 5565 5567 5568 5569 5570 5570 5569 5567 5566 5565 5565 5565 5565 5565 5565 5566 5567 5567 5568 5567 5566 5566 5566 5563 5561 5560 5559 5559 5559 5560 5560 5558 5556 5555 5553 5547 5545 5545 5543
5549 5552 5554 5557 5558 5559 5561 5564 5565 5565 5565 5564 5563 5563 5563 5563 5563 5564 5564 5564 5564 5564 5563 5562 5561 5559 5556 5553 5552 5552 5552 5553 5554 5554 5553 5552 5551 5549 5546 5543 5541 5540
5540 5542 5545 5548 5549 5550 5552 5555 5556 5557 5559 5560 5559 5559 5559 5559 5559 5560 5560 5560 5560 5559 5559 5558 5556 5552 5548 5547 5546 5545 5546 5548 5548 5548 5548 5548 5547 5545 5543 5540 5536 5535
5532 5535 5537 5540 5541 5542 5543 5545 5546 5549 5552 5554 5555 5555 5555 5555 5555 5555 5555 5555 5555 5555 5553 5550 5548 5544 5542 5541 5541 5541 5541 5542 5543 5543 5542 5542 5540 5539 5537 5534 5531 5530
5526 5528 5530 5532 5533 5534 5535 5536 5537 5540 5543 5545 5548 5549 5550 5551 5551 5551 5550 5549 5549 5549 5547 5543 5540 5540 5538 5536 5534 5533 5533 5535 5536 5537 5536 5534 5533 5532 5530 5528 5526 5524